Location: Sungai Berangan
(2.6167°N, 113.9167°E)
Time: 06:08:07
(UTC+00:00)

Daily predictions for brighter satellites

Satellite Brightness Start Highest point End
(mag) Time Altitude Azimuth Time Altitude Azimuth Time Altitude Azimuth
Cosmos 1812 Rocket 3.6 12:00:40 10° N 12:05:01 55° E 12:05:06 54° E
Fermi 3.5 12:02:32 10° WSW 12:06:35 81° SSE 12:06:43 79° ESE
IRS-P2 Rocket 4.5 12:06:01 29° SSE 12:08:44 84° ENE 12:14:02 10° N
USA 186 4.2 12:11:27 15° NNE 12:11:27 15° NNE 12:12:11 10° N
CSL-04 Debris 4.1 12:13:25 36° SSE 12:15:46 88° ENE 12:21:14 10° NNW
ERS-2 4.2 12:14:03 10° NNE 12:15:06 18° NNE 12:15:06 18° NNE
Ariane 3 Deb 3.4 12:07:18 10° W 12:22:14 58° SSW 12:22:56 53° SSE
OAO 3 Rocket 3.3 12:17:34 10° WNW 12:22:23 63° SW 12:22:34 62° SSW
Genesis I 3.8 12:20:21 10° NNW 12:23:46 58° WNW 12:23:46 58° WNW
Cosmos 372 Rocket 3.8 12:19:10 10° N 12:24:20 85° ENE 12:24:35 80° SE
Cosmos 2034 Rocket 4.3 12:23:20 10° NNW 12:29:33 67° W 12:33:38 23° S
CSL-04 Rocket 4.1 12:35:43 42° SSW 12:37:19 59° WSW 12:42:42 10° NNW
Delta 2 Rocket 3.8 12:31:31 10° WNW 12:37:32 79° SSW 12:37:47 77° S
ARIANE 5 R/B 3.4 12:40:22 10° W 13:18:43 - E 12:43:35 75° SSW
ATLAS 2A CENTAUR R/B 4.4 12:38:11 10° WNW 13:04:17 37° N 13:07:32 31° NE
ATLAS 3B CENTAUR R/B 3.1 13:02:19 10° WNW 13:08:33 85° WSW 13:08:33 85° WSW
Cosmos 2082 Rocket 4.1 13:06:53 10° SW 13:11:26 25° WNW 13:15:59 10° NNW
CENTAUR R/B 3.8 13:14:43 10° NNW 13:21:06 49° N 13:21:06 49° N
Atlas Centaur 2 4.2 19:38:35 23° E 19:38:35 23° E 19:41:09 10° ESE
BLOCK DM-SL R/B 4.5 19:04:40 10° W 19:38:14 76° NNE 19:43:18 10° E
ARIANE 5 R/B 4.5 19:54:30 37° E 19:54:30 37° E 19:56:33 10° E
Cosmos 967 Rocket 4.5 20:12:31 72° NNE 20:12:31 72° NNE 20:18:03 10° NNE
GPS 2-04 Rocket1 4.4 20:32:47 27° N 20:32:47 27° N 20:35:03 10° NNE
CZ-4C R/B 4.0 20:24:09 10° N 20:32:19 51° ENE 20:40:33 10° SE
Meteor 2-20 Rocket 4.3 20:27:28 10° N 20:33:38 89° W 20:37:56 21° S
Cosmos 1943 3.8 20:29:17 10° N 20:34:48 55° ENE 20:40:19 10° SSE
Cosmos 1726 4.4 20:38:26 16° N 20:38:26 16° N 20:39:12 10° N
Cosmos 1934 Rocket 3.9 20:33:06 32° S 20:36:07 79° E 20:42:12 10° N
Cosmos 1758 3.9 20:36:52 54° E 20:36:52 54° E 20:40:43 10° NNE
Cosmos 1025 Rocket 3.1 20:33:36 10° N 20:37:46 75° ENE 20:37:46 75° ENE
Cosmos 2278 Rocket 3.2 20:37:53 17° S 20:41:57 43° ESE 20:47:16 10° NE
Cosmos 1727 Rocket 3.9 20:39:20 10° N 20:45:36 78° W 20:51:56 10° S
Cosmos 968 Rocket 3.7 20:43:34 32° S 20:45:53 66° ESE 20:50:56 10° NNE
SeaSat 1 3.2 20:42:58 10° NE 20:47:43 50° ESE 20:50:49 21° S
ATLAS 2A CENTAUR R/B 4.0 20:46:26 44° WSW 20:48:23 58° SSW 21:11:26 10° SE
Cosmos 44 4.4 20:44:09 10° N 20:48:37 40° ENE 20:52:49 10° SE
ARIANE 5 DEB (SYLDA) 2.0 20:53:29 72° NNE 20:53:29 72° NNE 20:55:47 10° E
FUSE 3.8 20:54:25 43° WNW 20:56:11 77° SSW 21:01:34 10° ESE
MOS 1 Rocket 3.6 20:51:53 10° SSE 20:56:32 70° ENE 21:01:27 10° N
ARIANE DEB (SPELDA) 3.3 20:56:29 37° WSW 20:58:18 50° SSW 21:01:19 10° ESE
ISO 2.9 20:56:47 35° WSW 20:59:09 60° S 21:02:46 10° ESE
Cosmos 1346 Rocket 3.1 20:55:39 10° N 20:59:28 62° E 21:03:20 10° SSE
Ariane H10+ 3.8 21:00:34 30° SSW 21:02:01 38° SSE 21:13:49 10° E
SL-14 R/B 3.2 20:58:48 10° NNW 21:02:41 60° W 21:03:20 51° SW
Meteor 1-24 Rocket 4.3 20:58:41 10° N 21:04:18 58° E 21:09:42 10° SSE
Envisat 3.9 20:59:35 10° NNE 21:04:26 47° ESE 21:09:18 10° S
H-2A R/B 3.6 21:01:30 10° NNE 21:05:02 47° E 21:08:35 10° S
Ariane H10-3 2.6 21:05:59 40° WNW 21:06:57 66° N 21:14:25 10° E
USA 290 3.5 21:05:27 10° N 21:08:31 41° ENE 21:11:36 10° SSE
Cosmos 1607 4.2 21:07:52 28° SW 21:11:05 53° WNW 21:17:19 10° N
Meteor 2-5 Rocket 3.7 21:06:46 10° N 21:12:35 85° W 21:18:16 10° S
ADEOS 3.6 21:09:21 10° NNE 21:14:33 83° ESE 21:19:47 10° S
BLOCK DM-SL R/B 3.6 21:09:05 22° W 21:15:06 72° S 21:19:28 10° E
FALCON 9 DEB 4.5 21:19:14 20° NW 21:19:14 20° NW 21:21:13 10° N
Orbus 7S 4.0 21:21:22 28° WNW 21:22:06 35° NNW 21:25:18 10° NE
Cosmos 1536 Rocket 3.5 21:17:52 10° NNW 21:22:11 60° W 21:26:34 10° S
Cosmos 1603 4.0 21:17:25 10° NW 21:22:41 42° WSW 21:28:02 10° S
Atlas Centaur 2 2.7 21:21:16 21° W 21:24:40 43° SSW 21:31:17 10° SE
Cosmos 2123 Rocket 4.2 21:19:07 10° N 21:25:14 72° E 21:31:24 10° S
GEOS 3 Rocket 3.9 21:22:01 10° SE 21:27:20 74° ENE 21:32:40 10° NNW
CZ-4B R/B 4.3 21:23:44 10° N 21:27:50 47° WNW 21:31:56 11° SSW
SJ-12 4.4 21:25:17 10° N 21:29:08 41° WNW 21:32:22 14° SW
Meteor PRIRODA 4.5 21:28:21 10° NNE 21:31:51 50° ESE 21:35:22 10° S
Cosmos 405 2.8 21:31:33 10° S 21:34:58 89° W 21:38:23 10° N
USA 81 4.4 21:32:57 10° S 21:38:11 69° E 21:43:24 10° N
Meteor 1-16 Rocket 4.2 21:34:33 10° SSW 21:40:05 64° W 21:45:26 10° N
YAOGAN 6 3.1 21:40:31 10° N 21:43:58 41° W 21:47:27 10° SSW
OE (NEXTSAT) 4.5 21:41:39 15° SW 21:44:16 55° NW 21:47:35 10° NNE
Sea Lan Dem Rocket 3.0 21:33:44 11° W 21:45:03 74° S 21:48:49 10° E
Ariane H10+ 4.3 21:01:52 10° W 21:45:39 84° N 21:51:02 10° E
ARIANE 5 R/B 3.0 21:47:52 13° WSW 21:50:06 50° S 21:58:52 10° E
Cosmos 1943 Rocket 4.2 21:46:37 10° SSE 21:51:14 27° ESE 21:55:50 10° NE
Cosmos 1763 Rocket 3.9 21:47:16 10° NW 21:52:06 38° WSW 21:56:54 10° S
IRAS Rocket 4.2 21:49:30 10° S 21:55:03 73° WSW 22:00:32 10° NNW
Cosmos 1441 Rocket 3.3 21:53:32 10° N 21:57:29 88° WSW 22:01:27 10° S
Landsat 5 3.4 21:54:20 10° S 21:58:21 70° W 22:02:31 10° NNW
Meteosat 1 Rocket2 4.1 21:55:22 10° W 21:58:42 27° SSW 22:02:53 10° SSE
SL-4 R/B 3.6 21:57:19 10° S 22:00:56 33° SE 22:04:49 10° ENE
Cosmos 1300 2.8 21:59:48 10° S 22:03:36 81° E 22:07:22 10° N
Cosmos 1953 3.8 22:01:56 10° SW 22:04:53 19° W 22:07:50 10° NW
ARIANE 5 R/B 4.0 21:40:04 10° W 22:20:13 70° S 22:25:57 10° E
